Weather in Staraya Toropa

Russia / Tver Oblast     56°16′48″N   31°40′18″E
temp.,
°C
wind,
m/s
gust,
m/s
humid.,
%
clouds,
%
prec.,
mm/h
press.,
hPa
HPBL,
m
13 april, tue
tue1300:00+9se2693100 1.1 1023208
03:00+8ese1398100 3.6 1022102
06:00+8se1399100 1.3 102185
09:00+10se1394100 1.4 1021173
12:00+14sse2475100 0.0 1020729
15:00+16sse3570100 0.1 10191044
18:00+15ssw2672100 1.0 1018183
21:00+12s31083100 1.8 1018479
14 april, wed
wed1400:00+11sse41089100 0.1 1018389
03:00+9sse279474 0.1 1017257
06:00+9sse259699 0.0 1016133
09:00+11s2487100 0.1 1017320
12:00+12ssw1285100 0.1 1017343
15:00+13w0178100 0.7 1016299
18:00+11nnw358768 0.5 1016240
21:00+8n389597 0.5 1018300
15 april, thu
thu1500:00+7n3896100 0.0 1018338
03:00+7nne4996100 0.2 1017354
06:00+7nne389698 0.2 1017309
09:00+8ne489398 0.2 1017455
12:00+9ene3894100 0.8 1017538
15:00+9ene3996100 3.8 1018575
18:00+9ne41093100 1.3 1018533
21:00+8ne51292100 1.3 1019518
16 april, fri
fri1600:00+7ene51194100 1.0 1019511
03:00+7ne51194100 1.8 1019384
06:00+6ene41392100 0.0 1020473
09:00+7ne51490100 0.4 1021525
12:00+9ne51283100 0.3 1022652
15:00+12ene51071100 0.3 10221142
18:00+11ene51069100 0.0 10231073
21:00+8ene51269100 0.0 1025828
17 april, sat
sat1700:00+6ene5146594 0.0 1027606
03:00+4ene514705 0.0 1028542
06:00+3ene4147313 0.0 1029505
09:00+7ene513585 0.0 1030743
12:00+11e69420 0.0 10311285
15:00+12e68370 0.0 10311515
18:00+11e58470 0.0 10311403
21:00+7ene412590 0.0 1033502